Wind_Speed
3 3 4 4 3 3 3 3 3 2 3 3 3 3 3 3 3 3 3 4 5 5 6 7 7 7 7 8 8 8 8 8 8 9 8 9 9 9 9 9 9 9 9
3 3 3 3 3 3 3 4 4 3 3 3 3 3 3 3 4 4 4 5 6 7 7 8 8 8 8 8 8 9 9 9 9 8 9 9 10 10 10 10 10 10 10
4 2 2 2 3 3 4 4 4 4 3 3 3 3 3 4 5 5 6 6 7 8 8 8 8 8 9 9 9 9 9 9 9 9 10 10 11 11 11 11 11 11 11
3 2 1 2 2 3 3 4 3 4 4 4 4 4 4 5 5 5 6 7 7 7 8 8 8 9 9 9 9 9 10 10 10 10 11 11 12 12 12 12 12 12 12
2 0 1 2 2 3 4 4 4 5 5 5 5 5 5 5 5 6 6 7 7 8 8 9 9 9 10 10 10 10 11 11 11 11 11 11 12 12 12 12 12 13 12
0 1 1 2 2 3 4 5 5 5 5 5 5 6 6 6 7 7 7 8 8 9 9 9 10 10 10 10 10 11 11 12 12 12 12 11 11 12 12 12 13 13 13
1 1 2 2 2 3 3 4 5 5 6 6 6 6 7 8 8 9 9 9 9 9 10 10 10 10 11 11 11 12 12 12 12 12 12 12 12 13 13 13 13 13 13
2 2 3 4 4 4 4 5 6 6 6 7 7 7 8 9 9 10 10 10 10 10 11 11 10 10 11 12 12 12 12 13 13 13 13 14 14 14 14 14 15 15 15
3 4 4 5 6 6 6 6 7 7 8 8 8 9 9 9 10 10 11 12 12 12 12 12 11 11 12 13 13 14 14 15 15 15 15 16 16 16 15 15 16 16 16
5 6 6 6 7 7 7 7 7 8 8 8 9 9 9 10 10 10 10 11 11 11 11 11 11 12 13 13 13 13 14 15 16 16 16 16 16 16 16 17 17 16 16
8 8 8 8 8 8 8 9 9 9 9 9 9 10 10 10 10 11 11 11 12 12 12 12 12 13 13 13 14 14 14 14 15 16 16 16 16 16 16 16 16 16 16
10 10 10 10 10 10 10 10 10 10 11 11 11 11 12 12 12 12 12 12 13 13 13 13 13 14 14 14 14 14 14 15 15 15 15 15 15 16 16 16 16 16 16
12 12 11 11 11 12 12 11 11 11 12 12 12 12 12 13 13 13 13 13 14 14 15 15 15 14 14 15 15 15 16 16 15 15 15 15 15 15 16 16 16 16 16
13 13 13 13 13 14 13 13 12 12 13 13 13 13 13 13 14 14 15 15 15 15 16 16 16 17 17 17 16 16 16 16 16 15 15 15 15 16 16 16 16 16 16
15 15 15 15 16 16 16 15 15 14 14 14 14 14 14 14 15 16 16 16 16 16 16 17 18 18 18 18 18 17 17 17 17 17 17 16 16 17 17 17 17 17 17
17 17 18 18 18 17 17 17 16 16 15 15 15 15 16 16 17 17 17 17 17 16 17 18 18 19 20 20 19 19 19 18 18 18 18 18 17 17 18 18 17 17 17
19 19 19 19 19 18 17 17 17 17 17 17 17 17 18 18 18 18 18 18 18 18 18 18 19 20 20 21 20 20 20 19 19 19 19 19 19 19 20 20 19 19 19
21 21 21 21 20 20 20 19 19 19 19 19 19 19 19 20 20 19 19 19 20 20 19 19 19 19 20 20 20 21 21 21 20 20 21 21 21 22 21 21 21 21 21
23 23 23 23 22 21 21 21 22 22 22 22 22 22 21 21 21 21 21 21 21 21 21 21 20 20 20 20 19 20 21 21 22 23 23 23 23 23 23 23 23 22 23
26 26 25 24 23 23 23 24 25 25 24 24 24 24 24 23 22 23 23 23 23 22 22 22 21 21 21 20 20 20 21 23 24 24 25 25 25 25 25 25 24 24 24
28 29 28 27 26 25 25 26 27 27 26 26 26 27 26 25 25 25 25 25 25 24 24 23 23 22 22 22 22 23 23 23 24 25 26 27 27 27 27 26 26 26 26
30 29 29 29 28 27 28 29 29 28 28 28 28 28 27 27 27 27 27 27 27 26 25 25 25 24 24 24 24 25 25 25 25 26 27 27 27 28 28 28 28 28 28
31 30 30 30 30 30 31 31 32 31 31 31 31 30 29 29 29 30 29 29 28 28 28 27 26 26 26 27 27 27 27 27 27 27 27 28 28 29 29 29 29 29 29
31 31 31 32 33 33 33 34 34 33 33 33 33 34 32 31 32 31 31 31 31 31 31 30 29 28 29 29 29 29 29 29 29 29 29 29 29 29 30 30 30 29 29
33 33 33 33 34 34 34 33 34 34 34 35 34 34 34 33 33 33 33 33 33 33 33 32 31 31 31 31 31 31 31 30 30 30 30 30 30 30 30 30 30 30 30
34 34 34 34 34 34 34 34 34 35 35 35 35 35 35 35 35 35 34 33 34 34 34 33 33 34 33 33 33 33 33 32 32 31 31 31 32 31 31 30 30 30 30
Wind_Direction
167 168 183 188 198 207 209 210 210 222 236 244 254 260 258 260 265 269 265 266 264 265 265 264 262 265 267 269 271 272 271 269 271 272 265 261 260 263 268 271 271 274 276
151 152 163 182 204 206 208 216 213 217 235 252 259 258 259 265 271 274 268 266 268 272 274 272 270 268 268 271 275 271 270 272 273 273 271 269 264 264 267 272 272 274 275
137 143 167 194 218 219 218 221 226 230 239 252 256 255 261 267 272 269 269 269 271 274 274 275 272 271 273 272 273 270 270 272 270 270 272 269 268 269 271 272 275 277 277
133 138 186 225 242 239 232 227 243 251 251 256 248 249 257 263 271 269 269 271 273 277 279 277 274 273 273 271 271 273 272 273 272 272 271 272 270 270 273 274 275 276 278
124 178 261 267 256 249 247 240 251 254 259 257 249 248 257 262 266 269 272 272 274 278 280 278 277 272 272 271 272 275 275 274 275 276 274 275 275 274 274 276 277 276 277
123 291 273 266 266 260 257 252 259 267 274 272 262 256 261 264 265 269 272 276 280 279 281 281 279 276 273 273 273 277 278 278 276 277 275 277 278 279 279 280 281 279 278
2 333 318 298 285 287 282 273 274 280 282 279 273 268 267 269 271 271 271 275 280 283 284 282 282 277 275 272 274 277 278 279 279 279 275 276 279 280 280 280 280 280 278
319 307 298 298 294 289 288 285 281 277 281 279 278 277 274 278 276 272 273 276 280 284 284 283 282 281 281 276 275 275 277 281 282 280 278 277 278 280 280 279 280 278 276
307 305 297 295 294 290 292 293 290 279 278 276 276 279 281 284 281 277 279 277 279 282 283 282 282 282 282 281 279 280 279 280 280 280 279 278 279 278 281 283 282 279 276
306 300 296 293 293 292 291 292 292 289 282 281 280 280 283 284 284 284 283 283 282 282 281 280 280 281 282 280 280 282 282 281 282 281 280 279 280 283 284 284 284 282 280
303 301 296 293 288 286 286 288 290 290 288 286 283 283 282 284 284 284 283 284 281 279 279 280 280 280 279 280 281 284 285 284 283 283 280 280 282 284 285 285 285 282 281
295 295 292 287 286 283 283 285 288 287 285 285 284 285 285 286 285 286 282 282 282 279 277 277 277 280 280 279 280 283 286 286 285 285 282 281 282 284 287 287 286 283 283
289 290 290 287 286 285 285 285 288 287 283 284 284 286 288 287 286 286 285 282 280 278 276 275 277 279 279 280 282 285 285 286 287 286 285 283 282 284 287 288 287 285 284
288 290 290 288 286 286 284 285 288 287 284 282 283 284 287 286 284 283 283 282 279 278 276 274 276 278 279 280 281 283 283 285 285 285 287 287 286 287 289 288 288 287 284
286 287 285 285 285 284 283 285 285 286 286 285 283 283 285 286 284 283 283 281 279 277 275 275 275 275 277 278 279 280 281 283 284 284 286 287 287 287 287 287 287 286 284
282 284 283 284 286 285 282 282 283 283 288 288 288 290 290 290 286 284 282 280 279 278 276 275 276 275 276 276 276 277 278 280 282 284 284 285 286 286 286 286 286 286 284
279 279 281 283 282 282 282 282 284 284 285 284 284 284 285 287 286 283 280 279 278 278 278 278 279 279 277 276 276 276 277 277 278 282 283 283 283 285 285 286 285 285 284
278 278 278 278 279 277 277 280 283 284 284 283 282 280 281 283 284 282 279 278 278 278 279 279 281 281 280 278 276 276 278 277 278 279 280 281 281 283 283 283 283 283 283
276 276 278 277 277 276 276 277 278 280 282 282 281 279 279 279 278 278 278 277 278 277 278 278 278 279 279 279 281 280 280 279 279 278 278 279 281 282 281 281 282 283 283
274 276 277 275 276 277 277 277 277 278 279 280 279 279 278 276 277 277 276 276 275 276 276 275 276 275 276 277 279 281 282 280 279 279 279 279 279 280 280 281 281 281 282
275 275 274 274 274 275 277 277 278 277 278 279 279 277 275 274 275 275 275 274 274 274 275 274 272 272 274 275 277 279 282 283 283 281 280 279 278 279 279 280 281 281 279
274 277 275 275 274 276 277 278 277 277 275 275 276 276 274 273 273 274 273 273 272 273 274 272 271 271 272 274 276 278 280 281 283 282 282 280 279 278 278 279 280 280 279
275 277 277 277 275 276 276 276 276 275 275 275 274 274 272 271 272 273 273 272 272 273 271 271 271 271 272 274 275 277 279 280 281 282 282 281 280 279 278 279 279 279 278
278 278 277 277 276 276 276 277 274 273 273 274 274 272 272 271 272 273 273 272 271 272 271 272 272 272 273 274 275 276 277 278 280 281 282 281 281 282 281 280 280 279 279
278 276 277 277 278 277 279 279 275 274 273 274 275 276 274 274 274 271 270 270 270 270 270 271 271 271 273 274 274 275 276 277 278 279 280 280 280 281 282 282 282 280 279
278 276 276 276 277 278 278 279 276 273 274 274 275 276 276 273 273 272 270 270 271 270 270 270 271 272 272 273 273 274 276 277 278 278 279 280 280 279 279 280 282 281 280
Height
5891 5892 5892 5893 5894 5895 5896 5896 5896 5897 5897 5898 5898 5898 5899 5899 5899 5900 5900 5900 5900 5900 5900 5900 5900 5900 5900 5900 5901 5901 5900 5900 5900 5900 5900 5900 5900 5900 5900 5900 5900 5900 5900
5891 5892 5892 5893 5893 5894 5895 5895 5896 5896 5896 5897 5897 5897 5898 5898 5899 5899 5899 5899 5899 5899 5899 5899 5899 5899 5899 5899 5899 5899 5899 5899 5899 5899 5899 5898 5898 5898 5898 5898 5898 5898 5898
5891 5892 5892 5893 5893 5893 5894 5894 5895 5895 5895 5896 5896 5897 5897 5897 5897 5898 5898 5898 5898 5898 5898 5898 5897 5897 5897 5897 5897 5897 5897 5897 5897 5897 5896 5896 5896 5896 5896 5896 5896 5896 5896
5891 5892 5892 5892 5892 5893 5893 5893 5894 5894 5894 5895 5895 5895 5896 5896 5896 5896 5896 5897 5897 5896 5896 5896 5896 5896 5896 5895 5895 5895 5895 5895 5894 5894 5894 5894 5894 5894 5894 5894 5894 5893 5893
5891 5892 5892 5892 5892 5892 5892 5892 5893 5893 5893 5893 5893 5894 5894 5895 5895 5895 5895 5895 5895 5895 5895 5894 5894 5894 5894 5893 5893 5893 5893 5893 5892 5892 5892 5891 5891 5891 5891 5891 5891 5891 5891
5892 5892 5892 5892 5892 5891 5891 5891 5891 5891 5892 5892 5892 5893 5893 5893 5893 5894 5894 5893 5893 5893 5893 5892 5892 5892 5892 5891 5891 5891 5891 5890 5890 5889 5889 5889 5889 5888 5888 5888 5888 5888 5887
5892 5892 5891 5891 5891 5891 5890 5890 5890 5890 5891 5890 5891 5892 5892 5892 5892 5892 5892 5892 5892 5891 5891 5890 5890 5890 5890 5889 5889 5889 5889 5888 5888 5887 5887 5886 5886 5886 5885 5885 5885 5884 5884
5891 5891 5891 5891 5891 5890 5890 5890 5889 5889 5889 5889 5890 5890 5890 5891 5890 5890 5890 5890 5889 5889 5888 5888 5888 5887 5887 5887 5887 5887 5886 5886 5885 5884 5884 5883 5883 5882 5882 5881 5881 5881 5881
5891 5891 5890 5890 5890 5889 5889 5889 5888 5888 5888 5888 5888 5889 5888 5888 5887 5888 5887 5887 5887 5887 5886 5886 5885 5885 5885 5884 5884 5884 5883 5883 5882 5881 5881 5880 5880 5879 5879 5878 5878 5877 5877
5891 5890 5890 5889 5889 5888 5888 5887 5887 5886 5886 5886 5886 5886 5886 5886 5885 5885 5885 5884 5884 5884 5883 5883 5883 5882 5882 5881 5881 5880 5880 5879 5878 5878 5877 5876 5876 5875 5875 5874 5874 5873 5873
5890 5889 5888 5888 5887 5887 5886 5886 5885 5885 5884 5884 5884 5884 5884 5883 5883 5882 5882 5882 5881 5881 5880 5880 5880 5879 5879 5878 5878 5877 5876 5875 5875 5874 5873 5873 5872 5872 5871 5870 5870 5869 5869
5888 5887 5886 5886 5885 5884 5884 5883 5883 5883 5882 5882 5882 5881 5881 5881 5880 5879 5879 5878 5878 5878 5877 5877 5876 5876 5875 5875 5874 5874 5873 5872 5871 5870 5869 5869 5868 5868 5867 5867 5866 5865 5865
5885 5885 5884 5883 5882 5882 5881 5881 5880 5880 5880 5879 5879 5879 5878 5878 5877 5876 5876 5875 5875 5874 5874 5873 5873 5872 5872 5871 5870 5870 5869 5868 5868 5867 5866 5865 5865 5864 5863 5863 5862 5862 5861
5882 5881 5881 5880 5880 5879 5878 5878 5877 5877 5877 5876 5876 5875 5875 5874 5873 5873 5872 5872 5871 5871 5870 5870 5869 5868 5868 5867 5866 5866 5865 5864 5864 5863 5862 5861 5861 5860 5859 5858 5858 5857 5857
5879 5878 5877 5877 5876 5876 5875 5874 5874 5874 5873 5873 5872 5871 5871 5870 5869 5868 5868 5868 5867 5867 5866 5866 5865 5864 5863 5863 5862 5861 5861 5860 5859 5859 5858 5857 5856 5856 5855 5854 5853 5853 5852
5875 5874 5873 5873 5873 5872 5872 5871 5870 5870 5869 5868 5868 5867 5867 5866 5865 5864 5863 5863 5862 5862 5862 5861 5860 5859 5858 5858 5857 5857 5856 5855 5855 5854 5853 5852 5852 5851 5850 5849 5849 5848 5847
5870 5870 5869 5869 5868 5868 5867 5866 5866 5866 5865 5864 5863 5863 5862 5861 5860 5859 5858 5858 5857 5857 5857 5856 5855 5854 5853 5853 5852 5852 5851 5850 5849 5848 5848 5847 5846 5846 5845 5844 5844 5843 5842
5865 5865 5864 5863 5862 5862 5862 5861 5861 5861 5860 5860 5858 5858 5857 5856 5855 5854 5853 5853 5852 5852 5851 5851 5850 5849 5848 5847 5846 5846 5845 5845 5844 5843 5842 5841 5841 5840 5839 5839 5838 5837 5836
5859 5859 5858 5857 5856 5856 5855 5855 5855 5855 5854 5854 5853 5852 5851 5850 5849 5848 5848 5847 5846 5846 5845 5845 5844 5843 5842 5842 5841 5840 5839 5838 5838 5837 5836 5835 5834 5834 5833 5832 5832 5831 5830
5852 5852 5851 5851 5851 5850 5849 5849 5848 5848 5847 5847 5846 5845 5844 5843 5843 5842 5841 5841 5840 5839 5839 5839 5838 5837 5837 5836 5835 5834 5833 5832 5831 5830 5829 5828 5827 5827 5826 5826 5825 5824 5824
5844 5844 5844 5844 5843 5843 5842 5841 5841 5840 5840 5839 5838 5838 5837 5836 5835 5835 5834 5834 5833 5833 5832 5832 5832 5831 5830 5830 5829 5828 5827 5825 5824 5823 5822 5821 5820 5819 5819 5818 5817 5817 5816
5836 5836 5836 5835 5835 5834 5834 5833 5832 5832 5831 5830 5830 5829 5829 5828 5827 5827 5826 5826 5826 5825 5825 5825 5825 5824 5824 5823 5822 5821 5819 5818 5817 5816 5815 5813 5812 5811 5811 5810 5810 5809 5809
5827 5827 5827 5826 5826 5826 5825 5824 5823 5823 5822 5822 5821 5820 5820 5820 5819 5819 5818 5818 5817 5817 5817 5817 5817 5817 5816 5815 5814 5813 5812 5811 5809 5808 5807 5806 5804 5804 5803 5802 5802 5801 5800
5818 5818 5818 5817 5816 5816 5815 5814 5813 5812 5812 5812 5811 5811 5811 5811 5810 5809 5809 5809 5809 5809 5809 5808 5809 5808 5807 5806 5805 5805 5804 5803 5801 5800 5799 5798 5797 5796 5795 5794 5793 5793 5792
5808 5808 5808 5807 5806 5806 5805 5803 5802 5802 5802 5801 5802 5801 5801 5801 5801 5800 5799 5799 5799 5799 5799 5799 5799 5798 5797 5797 5796 5795 5795 5794 5793 5791 5790 5789 5788 5787 5786 5785 5784 5784 5784
5798 5797 5797 5796 5796 5795 5794 5793 5791 5791 5791 5791 5791 5791 5790 5790 5790 5789 5789 5789 5789 5789 5789 5789 5789 5788 5787 5787 5786 5786 5785 5784 5783 5783 5781 5780 5779 5778 5778 5777 5776 5775 5775